Location: S�tio Afonso Gruber
(26.1760°S, 49.5250°W)
Time: 11:04:15
(UTC+00:00)

M-CUBED/EXP-1 PRIME - Pass Details

Date: 06 December 2022
Orbit: 416 x 606 km, 101.7° (Epoch: 04 February)

Event Time Altitude Azimuth Distance (km) Brightness Sun altitude
Rises 21:31:58 0° 63° (ENE) 2,534 ? 5.0°
Enters shadow 22:34:52 -65° 13° (NNE) 12,201 ? -7.6°
Exits shadow 23:04:53 - 355° (N) 2,264 ? -13.4°
Reaches altitude 10° 23:06:24 10° 346° (NNW) 1,660 ? -13.6°
Maximum altitude 23:09:32 30° 284° (WNW) 874 ? -14.2°
Drops below altitude 10° 23:12:33 10° 221° (SW) 1,594 ? -14.8°
Sets 23:14:42 0° 209° (SSW) 2,447 ? -15.2°
